Time,TemperatureF,DewpointF,PressureIn,WindDirection,WindDirectionDegrees,WindSpeedMPH,WindSpeedGustMPH,Humidity,HourlyPrecipIn,Conditions,Clouds,dailyrainin,SoftwareType,DateUTC
2013-06-11 00:04:00,63.0,57.6,30.08,SSW,203,1.0,4.0,82,0.00,,,-99.99,meteohub,2013-06-10 22:04:00,
2013-06-11 00:19:00,63.0,58.5,30.08,SSW,203,2.0,3.0,85,0.00,,,0.00,meteohub,2013-06-10 22:19:00,
2013-06-11 00:35:00,62.6,58.1,30.08,SSW,203,0.0,2.0,85,0.00,,,0.00,meteohub,2013-06-10 22:35:00,
2013-06-11 00:51:00,62.4,58.3,30.08,SSW,203,1.0,3.0,86,0.00,,,0.00,meteohub,2013-06-10 22:51:00,
2013-06-11 01:06:00,62.4,58.5,30.08,SW,225,1.0,3.0,87,0.00,,,0.00,meteohub,2013-06-10 23:06:00,
2013-06-11 01:21:00,62.2,58.3,30.08,SW,225,1.0,3.0,87,0.00,,,0.00,meteohub,2013-06-10 23:21:00,
2013-06-11 01:37:00,62.1,58.5,30.07,SW,225,1.0,4.0,88,0.00,,,0.00,meteohub,2013-06-10 23:37:00,
2013-06-11 01:52:00,61.9,58.6,30.07,SW,225,0.0,3.0,89,0.00,,,0.00,meteohub,2013-06-10 23:52:00,
2013-06-11 02:08:00,61.9,59.0,30.08,SW,225,1.0,4.0,90,0.00,,,0.00,meteohub,2013-06-11 00:08:00,
2013-06-11 02:24:00,62.1,59.2,30.08,SW,225,1.0,3.0,90,0.00,,,0.00,meteohub,2013-06-11 00:24:00,
2013-06-11 02:39:00,61.9,57.6,30.08,SW,225,1.0,3.0,86,0.00,,,0.00,meteohub,2013-06-11 00:39:00,
2013-06-11 02:54:00,61.9,57.6,30.08,SW,225,1.0,2.0,86,0.00,,,0.00,meteohub,2013-06-11 00:54:00,
2013-06-11 03:10:00,61.5,57.9,30.07,SW,225,0.0,1.0,88,0.00,,,0.00,meteohub,2013-06-11 01:10:00,
2013-06-11 03:25:00,61.3,57.4,30.07,SW,225,0.0,0.0,87,0.00,,,0.00,meteohub,2013-06-11 01:25:00,
2013-06-11 03:40:00,61.3,57.2,30.07,SW,225,0.0,1.0,86,0.00,,,0.00,meteohub,2013-06-11 01:40:00,
2013-06-11 03:55:00,61.3,57.2,30.06,SW,225,0.0,2.0,86,0.00,,,0.00,meteohub,2013-06-11 01:55:00,
2013-06-11 04:11:00,61.3,57.4,30.06,SW,225,1.0,2.0,87,0.00,,,0.00,meteohub,2013-06-11 02:11:00,
2013-06-11 04:26:00,61.2,57.4,30.06,SW,225,0.0,1.0,87,0.00,,,0.00,meteohub,2013-06-11 02:26:00,
2013-06-11 04:42:00,61.2,57.6,30.06,SW,225,0.0,0.0,88,0.00,,,0.00,meteohub,2013-06-11 02:42:00,
2013-06-11 04:57:00,61.2,57.9,30.06,SW,225,0.0,2.0,89,0.00,,,0.00,meteohub,2013-06-11 02:57:00,
2013-06-11 05:13:00,61.0,57.9,30.05,SW,225,0.0,0.0,89,0.00,,,0.00,meteohub,2013-06-11 03:13:00,
2013-06-11 05:28:00,61.0,58.1,30.05,SW,225,0.0,1.0,90,0.00,,,0.00,meteohub,2013-06-11 03:28:00,
2013-06-11 05:43:00,61.0,58.3,30.05,SW,225,1.0,3.0,91,0.00,,,0.00,meteohub,2013-06-11 03:43:00,
2013-06-11 05:59:00,61.0,58.6,30.06,SW,225,1.0,3.0,92,0.00,,,0.00,meteohub,2013-06-11 03:59:00,
2013-06-11 06:14:00,61.0,58.8,30.06,SW,225,1.0,2.0,92,0.00,,,0.00,meteohub,2013-06-11 04:14:00,
2013-06-11 06:29:00,61.2,59.2,30.06,SW,225,1.0,3.0,93,0.00,,,0.00,meteohub,2013-06-11 04:29:00,
2013-06-11 06:44:00,61.2,59.2,30.06,SW,225,1.0,2.0,93,0.00,,,0.00,meteohub,2013-06-11 04:44:00,
2013-06-11 06:59:00,61.2,59.4,30.06,SW,225,2.0,4.0,94,0.00,,,0.00,meteohub,2013-06-11 04:59:00,
2013-06-11 07:15:00,61.2,59.4,30.07,SW,225,2.0,4.0,94,0.00,,,0.00,meteohub,2013-06-11 05:15:00,
2013-06-11 07:31:00,61.0,58.5,30.07,WNW,293,2.0,4.0,91,0.00,,,0.00,meteohub,2013-06-11 05:31:00,
2013-06-11 07:46:00,61.2,58.5,30.07,WNW,293,1.0,3.0,91,0.00,,,0.00,meteohub,2013-06-11 05:46:00,
2013-06-11 08:01:00,61.7,58.8,30.08,West,270,1.0,4.0,90,0.00,,,0.00,meteohub,2013-06-11 06:01:00,
2013-06-11 08:17:00,62.8,60.1,30.08,WSW,248,3.0,7.0,91,0.00,,,0.00,meteohub,2013-06-11 06:17:00,
2013-06-11 08:32:00,63.3,60.3,30.08,SW,225,2.0,5.0,90,0.00,,,0.00,meteohub,2013-06-11 06:32:00,
2013-06-11 08:48:00,64.0,60.8,30.08,SSW,203,4.0,8.0,89,0.00,,,0.00,meteohub,2013-06-11 06:48:00,
2013-06-11 09:03:00,64.2,60.6,30.08,WSW,248,4.0,7.0,88,0.00,,,0.00,meteohub,2013-06-11 07:03:00,
2013-06-11 09:19:00,65.5,61.5,30.09,SW,225,3.0,9.0,87,0.00,,,0.00,meteohub,2013-06-11 07:19:00,
2013-06-11 09:34:00,65.8,61.2,30.09,SSW,203,5.0,8.0,85,0.00,,,0.00,meteohub,2013-06-11 07:34:00,
2013-06-11 09:50:00,66.9,61.3,30.09,WSW,248,6.0,13.0,82,0.00,,,0.00,meteohub,2013-06-11 07:50:00,
2013-06-11 10:05:00,67.6,61.9,30.09,SSW,203,5.0,8.0,82,0.00,,,0.00,meteohub,2013-06-11 08:05:00,
2013-06-11 10:21:00,68.4,61.9,30.10,SSW,203,5.0,11.0,80,0.00,,,0.00,meteohub,2013-06-11 08:21:00,
2013-06-11 10:36:00,68.7,62.4,30.10,SW,225,6.0,11.0,80,0.00,,,0.00,meteohub,2013-06-11 08:36:00,
2013-06-11 10:52:00,69.1,62.2,30.10,SSW,203,7.0,12.0,79,0.00,,,0.00,meteohub,2013-06-11 08:52:00,
2013-06-11 11:07:00,68.9,62.2,30.10,SW,225,7.0,13.0,79,0.00,,,0.00,meteohub,2013-06-11 09:07:00,
2013-06-11 11:23:00,69.4,62.8,30.10,SW,225,7.0,14.0,79,0.00,,,0.00,meteohub,2013-06-11 09:23:00,
2013-06-11 11:38:00,70.0,63.0,30.10,SW,225,6.0,13.0,78,0.00,,,0.00,meteohub,2013-06-11 09:38:00,
2013-06-11 11:53:00,70.3,63.1,30.10,SW,225,6.0,14.0,78,0.00,,,0.00,meteohub,2013-06-11 09:53:00,
2013-06-11 12:09:00,70.3,63.1,30.10,SSW,203,7.0,14.0,78,0.00,,,0.00,meteohub,2013-06-11 10:09:00,
2013-06-11 12:25:00,70.7,63.3,30.10,SW,225,7.0,14.0,77,0.00,,,0.00,meteohub,2013-06-11 10:25:00,
2013-06-11 12:40:00,71.2,63.7,30.10,SW,225,8.0,14.0,77,0.00,,,0.00,meteohub,2013-06-11 10:40:00,
2013-06-11 12:56:00,70.9,63.3,30.10,SSW,203,7.0,13.0,77,0.00,,,0.00,meteohub,2013-06-11 10:56:00,
2013-06-11 13:11:00,71.6,63.9,30.10,SSW,203,6.0,14.0,76,0.00,,,0.00,meteohub,2013-06-11 11:11:00,
2013-06-11 13:27:00,72.0,64.0,30.10,SW,225,7.0,12.0,76,0.00,,,0.00,meteohub,2013-06-11 11:27:00,
2013-06-11 13:42:00,71.4,63.5,30.10,SSW,203,7.0,15.0,76,0.00,,,0.00,meteohub,2013-06-11 11:42:00,
2013-06-11 13:57:00,72.1,63.3,30.09,SW,225,8.0,15.0,74,0.00,,,0.00,meteohub,2013-06-11 11:57:00,
2013-06-11 14:13:00,72.7,63.3,30.09,SSW,203,9.0,15.0,72,0.00,,,0.00,meteohub,2013-06-11 12:13:00,
2013-06-11 14:28:00,72.9,63.0,30.08,SW,225,6.0,15.0,70,0.00,,,0.00,meteohub,2013-06-11 12:28:00,
2013-06-11 14:43:00,73.8,63.1,30.08,SSW,203,5.0,14.0,69,0.00,,,0.00,meteohub,2013-06-11 12:43:00,
2013-06-11 14:59:00,73.8,61.9,30.08,SSW,203,6.0,15.0,66,0.00,,,0.00,meteohub,2013-06-11 12:59:00,
2013-06-11 15:14:00,74.3,61.7,30.08,SW,225,8.0,17.0,65,0.00,,,0.00,meteohub,2013-06-11 13:14:00,
2013-06-11 15:30:00,73.8,61.7,30.09,SW,225,8.0,16.0,65,0.00,,,0.00,meteohub,2013-06-11 13:30:00,
2013-06-11 15:45:00,73.0,61.5,30.09,SW,225,8.0,13.0,67,0.00,,,0.00,meteohub,2013-06-11 13:45:00,
2013-06-11 16:01:00,74.7,61.7,30.08,SW,225,7.0,16.0,64,0.00,,,0.00,meteohub,2013-06-11 14:01:00,
2013-06-11 16:17:00,74.7,62.1,30.08,SW,225,6.0,12.0,64,0.00,,,0.00,meteohub,2013-06-11 14:17:00,
2013-06-11 16:32:00,73.9,62.1,30.07,SSW,203,7.0,13.0,66,0.00,,,0.00,meteohub,2013-06-11 14:32:00,
2013-06-11 16:47:00,73.8,62.6,30.07,SSW,203,6.0,12.0,68,0.00,,,0.00,meteohub,2013-06-11 14:47:00,
2013-06-11 17:03:00,73.9,62.8,30.07,SSW,203,6.0,15.0,68,0.00,,,0.00,meteohub,2013-06-11 15:03:00,
2013-06-11 17:18:00,74.1,63.1,30.07,SSW,203,8.0,14.0,68,0.00,,,0.00,meteohub,2013-06-11 15:18:00,
2013-06-11 17:34:00,73.0,62.8,30.07,South,180,7.0,14.0,70,0.00,,,0.00,meteohub,2013-06-11 15:34:00,
2013-06-11 17:49:00,73.8,63.0,30.07,SSW,203,6.0,13.0,69,0.00,,,0.00,meteohub,2013-06-11 15:49:00,
2013-06-11 18:05:00,73.8,63.1,30.06,South,180,6.0,11.0,69,0.00,,,0.00,meteohub,2013-06-11 16:05:00,
2013-06-11 18:20:00,72.9,62.2,30.07,SSW,203,8.0,13.0,69,0.00,,,0.00,meteohub,2013-06-11 16:20:00,
2013-06-11 18:36:00,72.3,62.4,30.06,South,180,7.0,12.0,71,0.00,,,0.00,meteohub,2013-06-11 16:36:00,
2013-06-11 18:51:00,72.3,62.4,30.06,SSW,203,6.0,13.0,71,0.00,,,0.00,meteohub,2013-06-11 16:51:00,
2013-06-11 19:07:00,72.3,61.5,30.06,South,180,6.0,11.0,69,0.00,,,0.00,meteohub,2013-06-11 17:07:00,
2013-06-11 19:22:00,72.3,61.2,30.06,South,180,6.0,11.0,68,0.00,,,0.00,meteohub,2013-06-11 17:22:00,
2013-06-11 19:38:00,71.6,61.7,30.06,South,180,5.0,12.0,71,0.00,,,0.00,meteohub,2013-06-11 17:38:00,
2013-06-11 19:53:00,71.2,61.7,30.07,South,180,6.0,11.0,72,0.00,,,0.00,meteohub,2013-06-11 17:53:00,
2013-06-11 20:09:00,70.7,61.0,30.07,South,180,5.0,10.0,71,0.00,,,0.00,meteohub,2013-06-11 18:09:00,
2013-06-11 20:24:00,70.3,60.6,30.08,SSW,203,5.0,10.0,71,0.00,,,0.00,meteohub,2013-06-11 18:24:00,
2013-06-11 20:41:00,69.6,61.0,30.08,South,180,5.0,8.0,74,0.00,,,0.00,meteohub,2013-06-11 18:41:00,
2013-06-11 20:56:00,69.1,61.0,30.08,South,180,4.0,7.0,75,0.00,,,0.00,meteohub,2013-06-11 18:56:00,
2013-06-11 21:12:00,68.5,60.6,30.08,SSW,203,3.0,7.0,76,0.00,,,0.00,meteohub,2013-06-11 19:12:00,
2013-06-11 21:27:00,68.4,60.8,30.08,SSW,203,4.0,7.0,77,0.00,,,0.00,meteohub,2013-06-11 19:27:00,
2013-06-11 21:42:00,67.5,61.3,30.09,SSW,203,5.0,7.0,80,0.00,,,0.00,meteohub,2013-06-11 19:42:00,
2013-06-11 21:57:00,66.9,61.3,30.09,SSW,203,4.0,7.0,82,0.00,,,0.00,meteohub,2013-06-11 19:57:00,
2013-06-11 22:13:00,66.2,61.5,30.09,South,180,4.0,8.0,85,0.00,,,0.00,meteohub,2013-06-11 20:13:00,
2013-06-11 22:28:00,66.0,61.3,30.10,SW,225,2.0,7.0,85,0.00,,,0.00,meteohub,2013-06-11 20:28:00,
2013-06-11 22:44:00,66.0,61.3,30.10,SSW,203,2.0,5.0,85,0.00,,,0.00,meteohub,2013-06-11 20:44:00,
2013-06-11 22:59:00,65.8,61.2,30.11,South,180,1.0,4.0,85,0.00,,,0.00,meteohub,2013-06-11 20:59:00,
2013-06-11 23:14:00,65.8,61.2,30.11,South,180,2.0,4.0,85,0.00,,,0.00,meteohub,2013-06-11 21:14:00,
2013-06-11 23:30:00,65.8,60.8,30.11,South,180,1.0,3.0,84,0.00,,,0.00,meteohub,2013-06-11 21:30:00,
2013-06-11 23:45:00,65.8,60.8,30.11,SW,225,1.0,2.0,84,0.00,,,0.00,meteohub,2013-06-11 21:45:00,